Home   Weather   Netherlands   Amsterdam   Past weeks
Flag for Netherlands

Past Weather in Amsterdam, Netherlands — July 2019

Currently: 61 °F. Clear. (Weather station: Amsterdam Schiphol Airport, Netherlands). See more current weather

July 2019 Weather in Amsterdam — Graph

°F

High & Low Weather Summary for July 2019

 TemperatureHumidityPressure
High97 °F (Jul 25, 4:55 pm)100% (Jul 12, 1:55 am)30.33 "Hg (Jul 12, 1:55 am)
Low46 °F (Jul 9, 3:25 am)30% (Jul 24, 2:55 pm)29.56 "Hg (Jul 27, 2:55 pm)
Average66 °F73%29.99 "Hg
* Reported Jul 1 12:25 am — Jul 31 11:55 pm, Amsterdam. Weather by CustomWeather, © 2022

Note: Actual official high and low records may vary slightly from our data, if they occured in-between our weather recording intervals... More about our weather records

Amsterdam Weather History for July 1, 2019

Scroll right to see more
 ConditionsComfort  
Time TempWeatherWind HumidityBarometerVisibility
12:25 am
Mon, Jul 1
61 °FClear.8 mph88%29.98 "Hg10 mi
12:55 am61 °FClear.8 mph88%29.98 "Hg10 mi
1:25 am61 °FClear.8 mph88%29.98 "Hg10 mi
1:55 am61 °FClear.9 mph88%29.98 "Hg10 mi
2:25 am63 °FClear.12 mph88%29.98 "Hg10 mi
2:55 am63 °FClear.10 mph88%29.98 "Hg10 mi
3:25 am63 °FClear.9 mph88%29.98 "Hg10 mi
3:55 am63 °FClear.9 mph88%29.98 "Hg10 mi
4:25 am63 °FClear.12 mph88%29.98 "Hg10 mi
4:55 am63 °FClear.10 mph83%29.98 "Hg10 mi
5:25 am63 °FSunny.12 mph83%29.98 "Hg10 mi
5:55 am63 °FSunny.10 mph83%29.98 "Hg10 mi
6:25 am63 °FSunny.10 mph83%29.98 "Hg10 mi
6:55 am63 °FSunny.12 mph83%29.98 "Hg10 mi
7:25 am63 °FPassing clouds.12 mph83%30.01 "HgN/A
7:55 am64 °FPassing clouds.14 mph78%30.01 "HgN/A
8:25 am64 °FPassing clouds.13 mph78%30.01 "HgN/A
8:55 am66 °FPassing clouds.15 mph68%30.01 "HgN/A
9:25 am66 °FPassing clouds.16 mph68%30.01 "HgN/A
9:55 am66 °FScattered clouds.17 mph73%30.01 "HgN/A
10:25 am68 °FScattered clouds.16 mph64%30.04 "HgN/A
10:55 am66 °FScattered clouds.16 mph68%30.04 "HgN/A
11:25 am64 °FPartly sunny.18 mph73%30.04 "HgN/A
11:55 am66 °FPartly sunny.20 mph68%30.04 "HgN/A
12:25 pm66 °FPartly sunny.18 mph68%30.07 "HgN/A
12:55 pm68 °FScattered clouds.17 mph60%30.07 "HgN/A
1:25 pm68 °FScattered clouds.18 mph56%30.07 "HgN/A
1:55 pm68 °FPassing clouds.17 mph56%30.07 "HgN/A
2:25 pm68 °FPassing clouds.18 mph49%30.07 "HgN/A
2:55 pm68 °FPassing clouds.17 mph53%30.09 "HgN/A
3:25 pm68 °FPassing clouds.17 mph56%30.09 "HgN/A
3:55 pm68 °FPassing clouds.17 mph53%30.09 "HgN/A
4:25 pm68 °FScattered clouds.18 mph56%30.09 "HgN/A
4:55 pm66 °FScattered clouds.20 mph56%30.09 "HgN/A
5:25 pm66 °FScattered clouds.16 mph60%30.09 "HgN/A
5:55 pm66 °FScattered clouds.16 mph60%30.09 "HgN/A
6:25 pm68 °FPassing clouds.16 mph56%30.09 "HgN/A
6:55 pm66 °FPassing clouds.15 mph56%30.09 "HgN/A
7:25 pm66 °FPassing clouds.15 mph56%30.09 "HgN/A
7:55 pm66 °FPassing clouds.14 mph56%30.09 "HgN/A
8:25 pm64 °FPassing clouds.13 mph60%30.09 "HgN/A
8:55 pm64 °FPassing clouds.12 mph60%30.09 "HgN/A
9:25 pm63 °FPassing clouds.12 mph68%30.09 "HgN/A
9:55 pm61 °FPassing clouds.9 mph72%30.12 "HgN/A
10:25 pm63 °FPassing clouds.9 mph68%30.12 "HgN/A
10:55 pm63 °FPassing clouds.9 mph68%30.12 "HgN/A
11:25 pm63 °FPassing clouds.7 mph73%30.12 "HgN/A
11:55 pm63 °FPassing clouds.9 mph77%30.15 "HgN/A
Weather by CustomWeather, © 2022

See weather overview